MULK1: ARKANSAS RIVER NEAR MULVANE 1W

Data processed at Sat May 25 2019 23:50


All information presented herein is the property of the government of the United States of America and may be revised or deleted at any time without prior notice.
Dissemination of this information without the expressed written consent of the Public Affairs Office, Tulsa District U.S. Army Corps of Engineers is strictly prohibited.
These data are gathered electronically and, as presented, have not undergone any form of quality control. These data are not guaranteed to be valid or correct.
Go to home page.
Go to station list.
Go to home page.

Upstream stations:

Downstream station:
Previous Day
Next Day
Current Day
    
SHEF ID:       MULK1     ARKANSAS RIVER NEAR MULVANE 1W
STATION TYPE:  

               PRECIP     STAGE  STAGE(2)  RIV-FLOW  BAT-LOAD
                   in        ft        ft       cfs      volt
              Ccp-Rev   Ccp-Rev   Ccp-Rev   Ccp-Rev   Ccp-Rev
(US/Central)
05/25 00:00      0.00     20.01      ----     29500     12.17
05/25 01:00      0.00     20.06      ----     29600     12.17
05/25 02:00      0.00     20.05      ----     29600     12.17
05/25 03:00      0.00     20.00      ----     29500     12.17
05/25 04:00      0.00     19.94      ----     29400     12.17
05/25 05:00      0.00     19.82      ----     29200     12.17
05/25 06:00      0.00     19.74      ----     29000     12.17
05/25 07:00      0.00     19.58      ----     28700     12.17
05/25 08:00      0.00     19.53      ----     28700     12.33
05/25 09:00      0.00     19.42      ----     28400     12.73
05/25 10:00      0.00     19.36      ----     28300     12.81
05/25 11:00      0.00     19.29      ----     28200     12.89
05/25 12:00      0.00     19.17      ----     28000     12.81
05/25 13:00      0.00     19.12      ----     27900     12.89
05/25 14:00      0.00     18.98      ----     27600     12.81
05/25 15:00      0.00     18.88      ----     27400     12.97
05/25 16:00      0.00     18.76      ----     27200     12.73
05/25 17:00      0.00     18.65      ----     27000     12.97
05/25 18:00      0.00     18.57      ----     26800     13.05
05/25 19:00      0.00     18.41      ----     26500     12.57
05/25 20:00      0.00     18.30      ----     26300     12.41
05/25 21:00      0.00     18.21      ----     26100     12.41
05/25 22:00      0.00     18.13      ----     25900     12.33
05/25 23:00      0.00     18.16      ----     26000     12.33